Bluefield, WV

12:38 PM EST on December 06, 2019 (GMT -0500)
Mercer County

Weather History for KBLF - May, 2019

Change the Weather History Date:

Friday, May 24, 2019

  Actual Average Record
Temperature  
Mean Temperature 73 °F 64 °F  
Max Temperature 79 °F 74 °F 89 °F (1939)
Min Temperature 66 °F 55 °F 36 °F (1951)
Degree Days  
Heating Degree Days 0 3  
Month to date heating degree days 81 118  
Since 1 July heating degree days 4854 4548  
Cooling Degree Days 8 3  
Month to date cooling degree days 43 41  
Year to date cooling degree days 48 69  
Growing Degree Days 22 (Base 50)    
Moisture  
Dew Point 62 °F    
Average Humidity 69    
Maximum Humidity 84    
Minimum Humidity 54    
Precipitation  
Precipitation 0.00 in 0.14 in 2.01 in (1938)
Month to date precipitation 4.31 3.25  
Year to date precipitation 18.01 15.76  
Snow  
Snow 0.00 in - - ()
Month to date snowfall 0.0  
Since 1 July snowfall 30.8  
Snow Depth 0.00 in    
Sea Level Pressure  
Sea Level Pressure 30.15 in    
Wind  
Wind Speed 7 mph (West)    
Max Wind Speed 16 mph    
Max Gust Speed 24 mph    
Visibility 10 miles    
Events      
T = Trace of Precipitation, MM = Missing Value Source: NWS Daily Summary

Daily Weather History Graph

Daily Weather History Graph

Search for Another Location

Airport or City:

Astronomy

May. 24, 2019 Rise Set
Actual Time 6:09 AM EDT 8:33 PM EDT
Civil Twilight 5:40 AM EDT 9:03 PM EDT
Nautical Twilight 5:03 AM EDT 9:40 PM EDT
Astronomical Twilight 4:22 AM EDT 10:21 PM EDT
Moon 12:58 AM EDT (5/24) 11:08 AM EDT (5/24)
Length of Visible Light 15h 23m
Length of Day
14h 24m
Waning Gibbous, 69% of the Moon is Illuminated
May 24
Waning Gibbous
May 26
Last Quarter
Jun 3
New
Jun 10
First Quarter
Jun 17
Full

Hourly Weather History & Observations

Time (EDT) Temp. Dew Point Humidity Pressure Visibility Wind Dir Wind Speed Gust Speed Precip Events Conditions
12:52 AM 68.0 °F 60.1 °F 76% 30.11 in 10.0 mi West 8.1 mph - N/A   Clear
1:52 AM 66.0 °F 59.0 °F 78% 30.10 in 10.0 mi WSW 8.1 mph - N/A   Clear
2:52 AM 66.0 °F 59.0 °F 78% 30.10 in 10.0 mi WSW 8.1 mph - N/A   Mostly Cloudy
3:52 AM 66.9 °F 57.9 °F 73% 30.08 in 10.0 mi WSW 5.8 mph - N/A   Overcast
4:52 AM 66.9 °F 59.0 °F 76% 30.10 in 10.0 mi West 6.9 mph - N/A   Mostly Cloudy
5:09 AM 66.9 °F 59.0 °F 76% 30.20 in 10.0 mi West 5.8 mph - N/A   Overcast
5:52 AM 66.9 °F 57.9 °F 73% 30.10 in 10.0 mi West 6.9 mph - N/A   Overcast
6:52 AM 66.9 °F 59.0 °F 76% 30.12 in 10.0 mi West 5.8 mph - N/A   Overcast
7:52 AM 66.9 °F 60.1 °F 79% 30.14 in 10.0 mi West 6.9 mph - N/A   Overcast
8:52 AM 68.0 °F 61.0 °F 78% 30.15 in 10.0 mi West 6.9 mph - N/A   Overcast
9:52 AM 70.0 °F 62.1 °F 76% 30.16 in 10.0 mi West 9.2 mph - N/A   Overcast
10:52 AM 71.1 °F 63.0 °F 75% 30.16 in 10.0 mi WNW 10.4 mph 18.4 mph N/A   Mostly Cloudy
11:52 AM 73.0 °F 64.0 °F 73% 30.16 in 10.0 mi NW 10.4 mph 19.6 mph N/A   Overcast
11:59 AM 73.0 °F 64.0 °F 73% 30.26 in 10.0 mi West 6.9 mph - N/A   Mostly Cloudy
12:20 PM 73.9 °F 64.0 °F 71% 30.26 in 10.0 mi West 12.7 mph 23.0 mph N/A   Mostly Cloudy
12:52 PM 75.0 °F 63.0 °F 66% 30.14 in 10.0 mi WNW 9.2 mph 24.2 mph N/A   Partly Cloudy
1:52 PM 75.0 °F 63.0 °F 66% 30.14 in 10.0 mi WNW 9.2 mph 19.6 mph N/A   Mostly Cloudy
2:00 PM 75.0 °F 63.0 °F 66% 30.24 in 10.0 mi NW 9.2 mph 16.1 mph N/A   Mostly Cloudy
2:27 PM 75.9 °F 62.1 °F 62% 30.24 in 10.0 mi WNW 13.8 mph 21.9 mph N/A   Mostly Cloudy
2:52 PM 78.1 °F 63.0 °F 60% 30.12 in 10.0 mi WNW 13.8 mph 19.6 mph N/A   Mostly Cloudy
3:52 PM 78.1 °F 61.0 °F 56% 30.11 in 10.0 mi WNW 12.7 mph 20.7 mph N/A   Scattered Clouds
4:52 PM 79.0 °F 62.1 °F 56% 30.11 in 10.0 mi WNW 10.4 mph - N/A   Mostly Cloudy
5:52 PM 78.1 °F 62.1 °F 58% 30.12 in 10.0 mi WNW 10.4 mph 18.4 mph N/A   Scattered Clouds
6:52 PM 75.9 °F 62.1 °F 62% 30.12 in 10.0 mi WNW 8.1 mph - N/A   Overcast
7:52 PM 75.0 °F 63.0 °F 66% 30.14 in 10.0 mi WNW 6.9 mph - N/A   Mostly Cloudy
8:52 PM 71.1 °F 63.0 °F 75% 30.14 in 10.0 mi Calm Calm - N/A   Partly Cloudy
9:52 PM 68.0 °F 63.0 °F 84% 30.15 in 10.0 mi Calm Calm - N/A   Scattered Clouds
10:52 PM 69.1 °F 64.0 °F 84% 30.13 in 10.0 mi SSE 3.5 mph - N/A   Clear
11:52 PM 66.9 °F 61.0 °F 81% 30.12 in 10.0 mi Calm Calm - N/A   Clear